[[{"header":{"parameterUnit":"m.s-1","parameterCategory":1,"la1":30.2991,"la2":30.254,"lo1":-89.0895,"lo2":-89.0444,"dy":0.0017,"dx":0.0017,"nx":28,"ny":28,"refTime":"2025-03-30T09:00:00:Z","depth":0,"parameterNumber":2,"parameterNumberName":"U-component_of_WINDS"},"data":[0,0,0,0,0,0,0,0,0,0,0,0,0,0,0,0,0,0,0,0,0,0,0,0,0,0,0,0,0,0,0,0,0,0,0,0,0,0,0,0,0,0,0,0,0,0,0,0,0,0,0,0,0,0,0,0,0,0,-1.2648,-1.2649,0,-1.2751,-1.2752,-1.2754,-1.2797,-1.2797,-1.2796,-1.2796,-1.2902,-1.2905,-1.2908,0,0,0,0,0,0,0,0,0,0,0,0,0,-1.2486,-1.2489,-1.2647,-1.2649,-1.265,-1.2751,-1.2752,-1.2754,-1.2797,-1.2797,-1.2796,-1.2796,-1.2901,-1.2904,-1.2908,0,0,0,0,0,0,0,0,0,0,0,0,0,-1.2569,-1.249,-1.2647,-1.2684,-1.2688,-1.2751,-1.2752,-1.2754,-1.2797,-1.2797,-1.2796,-1.2796,-1.29,-1.2904,-1.2908,-1.2942,0,0,-1.2922,-1.2924,0,0,0,0,0,0,0,0,-1.2565,-1.2575,-1.2677,-1.2681,-1.2686,-1.2761,-1.2734,-1.2817,-1.2797,-1.2756,-1.2796,-1.2796,-1.2855,-1.2863,-1.2883,-1.2947,-1.2952,-1.2923,-1.2925,-1.2927,-1.2929,0,0,0,0,0,0,0,-1.2559,-1.2571,-1.2688,-1.2678,-1.2684,-1.2695,-1.2706,-1.275,-1.2806,-1.2759,-1.2763,-1.2774,-1.2858,-1.2879,-1.2886,-1.2953,-1.2922,-1.2926,-1.2929,-1.2931,-1.305,-1.3051,0,0,0,0,0,0,-1.2547,-1.2566,-1.2685,-1.2692,-1.2623,-1.2698,-1.2711,-1.2737,-1.2805,-1.2816,-1.2774,-1.2776,-1.2871,-1.2881,-1.289,-1.2934,-1.2927,-1.2931,-1.2934,-1.305,-1.305,-1.3051,0,0,0,0,0,0,-1.2543,-1.2557,-1.2681,-1.263,-1.2646,-1.2701,-1.273,-1.2739,-1.2761,-1.2817,-1.2827,-1.2786,-1.2871,-1.2884,-1.2929,-1.2939,-1.2933,-1.2938,-1.3049,-1.305,-1.3051,-1.3023,0,0,0,0,0,0,-1.2539,-1.2556,-1.2569,-1.263,-1.2649,-1.2718,-1.2731,-1.2742,-1.2769,-1.2771,-1.2831,-1.284,-1.2872,-1.2922,-1.2934,-1.2945,-1.2941,-1.3049,-1.305,-1.305,-1.3023,-1.3022,-1.3022,0,0,0,0,0,-1.2533,-1.2557,-1.257,-1.2584,-1.2667,-1.2719,-1.273,-1.2767,-1.2769,-1.2783,-1.2819,-1.2838,-1.2936,-1.2926,-1.294,-1.2952,-1.3048,-1.3049,-1.305,-1.3023,-1.3023,-1.3022,0,0,0,0,0,0,-1.2497,-1.2566,-1.2581,-1.2626,-1.2666,-1.2726,-1.2745,-1.2765,-1.2805,-1.2806,-1.285,-1.2863,-1.2904,-1.2933,-1.2921,-1.2989,-1.2993,-1.2997,-1.2968,-1.2968,-1.2967,-1.296,-1.2945,0,0,0,0,0,-1.2494,-1.253,-1.2589,-1.2623,-1.2643,-1.269,-1.2714,-1.2739,-1.2782,-1.28,-1.2839,-1.288,-1.292,-1.2946,-1.2986,-1.3027,-1.3041,-1.3043,-1.3042,-1.3041,-1.3044,-1.3068,-1.3069,-1.3054,-1.3054,-1.3054,0,0,-1.2489,-1.2531,-1.2552,-1.2617,-1.2651,-1.2688,-1.2704,-1.2742,-1.277,-1.2805,-1.2851,-1.2881,-1.293,-1.2974,-1.2995,-1.2999,-1.3051,-1.3042,-1.3041,-1.3045,-1.3069,-1.307,-1.3072,-1.3055,-1.3055,-1.3055,0,0,-1.2498,-1.2534,-1.2566,-1.26,-1.2652,-1.2683,-1.2691,-1.2748,-1.2769,-1.2815,-1.2843,-1.2876,-1.2944,-1.2978,-1.3004,-1.3025,-1.3044,-1.3037,-1.3034,-1.3057,-1.3058,-1.3059,-1.3066,-1.3069,-1.3039,-1.3039,-1.3039,0,-1.2485,-1.2541,-1.258,-1.2617,-1.2644,-1.2678,-1.2711,-1.2742,-1.2804,-1.2822,-1.2826,-1.2911,-1.2947,-1.2999,-1.3004,-1.3024,-1.3034,-1.303,-1.3054,-1.3056,-1.3058,-1.3065,-1.3068,-1.3038,-1.3038,-1.3038,-1.3039,0,-1.2523,-1.2561,-1.2581,-1.264,-1.267,-1.2704,-1.2748,-1.2774,-1.2795,-1.2826,-1.2873,-1.2916,-1.2966,-1.298,-1.3001,-1.3035,-1.3035,-1.3046,-1.3052,-1.3057,-1.3065,-1.3069,-1.3036,-1.3037,-1.3037,-1.3037,0,0,-1.2513,-1.2592,-1.2599,-1.2626,-1.2685,-1.2716,-1.2751,-1.2799,-1.282,-1.2862,-1.2893,-1.2949,-1.296,-1.2989,-1.3015,-1.3035,-1.3049,-1.3043,-1.3045,-1.3043,-1.3088,-1.3079,-1.3082,-1.3062,-1.3062,-1.3063,-1.3084,0,-1.253,-1.2596,-1.2631,-1.2682,-1.2718,-1.275,-1.2781,-1.2821,-1.285,-1.2885,-1.2918,-1.2957,-1.2968,-1.2986,-1.3007,-1.3042,-1.3058,-1.3041,-1.3091,-1.3092,-1.3077,-1.3086,-1.3078,-1.3095,-1.3087,-1.3088,-1.3088,0,-1.2559,-1.26,-1.2654,-1.2709,-1.2725,-1.2752,-1.2799,-1.2832,-1.2877,-1.2898,-1.293,-1.2956,-1.2994,-1.2997,-1.305,-1.3038,-1.306,-1.3081,-1.3082,-1.3088,-1.309,-1.3093,-1.3102,-1.3104,-1.3093,-1.3093,-1.3092,0,-1.2546,-1.2614,-1.2656,-1.2678,-1.2743,-1.2761,-1.2789,-1.2834,-1.2861,-1.2901,-1.2919,-1.2964,-1.2988,-1.3022,-1.3059,-1.3057,-1.3109,-1.3114,-1.3126,-1.3125,-1.3136,-1.3135,-1.3149,-1.315,-1.315,-1.315,-1.315,0,-1.2561,-1.2593,-1.2651,-1.2676,-1.2712,-1.2753,-1.2788,-1.2818,-1.2858,-1.2889,-1.292,-1.2949,-1.2996,-1.3031,-1.3059,-1.3099,-1.311,-1.3127,-1.3135,-1.3125,-1.3123,-1.314,-1.314,-1.3151,-1.315,-1.315,-1.315,0,-1.2553,-1.2593,-1.264,-1.2698,-1.2713,-1.2737,-1.2786,-1.2812,-1.2843,-1.2883,-1.2894,-1.2943,-1.2985,-1.3025,-1.3082,-1.3101,-1.3141,-1.3151,-1.3126,-1.313,-1.314,-1.3138,-1.3166,-1.3171,-1.3168,-1.3168,-1.3168,0,-1.2561,-1.2586,-1.2646,-1.2669,-1.2697,-1.2734,-1.2761,-1.2802,-1.2829,-1.2882,-1.2901,-1.2946,-1.2984,-1.305,-1.309,-1.3134,-1.3144,-1.3151,-1.3151,-1.314,-1.3145,-1.3143,-1.3145,-1.315,-1.315,-1.315,-1.315,0,-1.2569,-1.2588,-1.2626,-1.2671,-1.2702,-1.274,-1.2778,-1.2796,-1.2843,-1.2872,-1.2916,-1.2945,-1.3003,-1.3047,-1.3095,-1.3123,-1.3144,-1.3149,-1.3154,-1.3145,-1.3129,-1.3138,-1.3124,-1.3149,-1.3149,-1.3149,-1.3149,-1.3149,-1.257,-1.2593,-1.2639,-1.2681,-1.2714,-1.2749,-1.2776,-1.281,-1.2847,-1.2897,-1.2919,-1.2963,-1.3007,-1.3074,-1.3102,-1.3137,-1.3142,-1.3149,-1.3151,-1.3152,-1.315,-1.3123,-1.3146,-1.3146,-1.3146,-1.3146,-1.3146,0,-1.258,-1.2611,-1.2649,-1.2701,-1.2734,-1.2751,-1.2794,-1.282,-1.2858,-1.2898,-1.2935,-1.2985,-1.3027,-1.3071,-1.3116,-1.3135,-1.3146,-1.3146,-1.3145,-1.3151,-1.3144,-1.3135,-1.3136,-1.3136,-1.3136,-1.3136,-1.3136,-1.3136,-1.2589,-1.2631,-1.2654,-1.2712,-1.2743,-1.2786,-1.2809,-1.2842,-1.2874,-1.2928,-1.2964,-1.2992,-1.3033,-1.3081,-1.3121,-1.3133,-1.3148,-1.3145,-1.3159,-1.3151,-1.3152,-1.3152,-1.3144,-1.3147,-1.3147,-1.3164,-1.3164,-1.3164]},{"header":{"parameterUnit":"m.s-1","parameterCategory":1,"la1":30.2991,"la2":30.254,"lo1":-89.0895,"lo2":-89.0444,"dy":0.0017,"dx":0.0017,"nx":28,"ny":28,"refTime":"2025-03-30T09:00:00:Z","depth":0,"parameterNumber":3,"parameterNumberName":"V-component_of_WINDS"},"data":[0,0,0,0,0,0,0,0,0,0,0,0,0,0,0,0,0,0,0,0,0,0,0,0,0,0,0,0,0,0,0,0,0,0,0,0,0,0,0,0,0,0,0,0,0,0,0,0,0,0,0,0,0,0,0,0,0,0,4.812,4.8121,0,4.8179,4.818,4.818,4.8159,4.8158,4.8156,4.8155,4.8217,4.822,4.8223,0,0,0,0,0,0,0,0,0,0,0,0,0,4.7994,4.7997,4.812,4.8121,4.8122,4.8179,4.818,4.818,4.8159,4.8157,4.8156,4.8154,4.8216,4.8219,4.8223,0,0,0,0,0,0,0,0,0,0,0,0,0,4.8051,4.7997,4.812,4.8118,4.8118,4.8179,4.818,4.8181,4.8159,4.8157,4.8155,4.8154,4.8215,4.8219,4.8223,4.829,0,0,4.8237,4.8238,0,0,0,0,0,0,0,0,4.8047,4.8055,4.8117,4.8118,4.8119,4.816,4.8158,4.8217,4.816,4.8144,4.8155,4.8153,4.82,4.8205,4.822,4.8293,4.8296,4.8237,4.824,4.8241,4.8243,0,0,0,0,0,0,0,4.8044,4.8053,4.8143,4.8118,4.8119,4.8116,4.8121,4.8169,4.8182,4.8145,4.8144,4.8151,4.82,4.8216,4.8222,4.8296,4.8237,4.8241,4.8243,4.8245,4.8432,4.8434,0,0,0,0,0,0,4.8039,4.805,4.8142,4.8145,4.8077,4.8119,4.8126,4.8148,4.8182,4.8185,4.8152,4.815,4.821,4.8217,4.8224,4.8307,4.8241,4.8245,4.8248,4.8429,4.8432,4.8435,0,0,0,0,0,0,4.8036,4.8047,4.8139,4.8097,4.8109,4.8124,4.8149,4.8151,4.8167,4.8187,4.819,4.8167,4.8209,4.8218,4.8275,4.8309,4.8247,4.8251,4.8427,4.843,4.8433,4.8472,0,0,0,0,0,0,4.8033,4.8046,4.8071,4.8098,4.8111,4.8188,4.8151,4.8153,4.8175,4.8172,4.8201,4.8205,4.8208,4.8268,4.8279,4.8314,4.8255,4.8424,4.8428,4.8432,4.8468,4.8477,4.8484,0,0,0,0,0,4.8028,4.8079,4.8072,4.8083,4.8141,4.819,4.8197,4.8199,4.8177,4.8203,4.8217,4.8204,4.8303,4.8274,4.8286,4.8323,4.8421,4.8427,4.8432,4.8465,4.8475,4.8484,0,0,0,0,0,0,4.8054,4.8082,4.8075,4.8135,4.816,4.8186,4.8218,4.821,4.8242,4.8238,4.824,4.8247,4.8306,4.832,4.8287,4.8392,4.8359,4.8367,4.838,4.839,4.8398,4.8394,4.8258,0,0,0,0,0,4.8067,4.8103,4.8126,4.8177,4.819,4.8202,4.8223,4.8223,4.8249,4.826,4.8277,4.8304,4.8342,4.8367,4.8402,4.847,4.8478,4.8502,4.851,4.8516,4.8523,4.8564,4.8576,4.8452,4.8452,4.8452,0,0,4.8094,4.8114,4.8136,4.8183,4.8202,4.8242,4.8211,4.8253,4.8283,4.8266,4.8322,4.8336,4.8367,4.843,4.8459,4.8444,4.856,4.8523,4.8528,4.8532,4.8571,4.8583,4.8593,4.8456,4.8455,4.8455,0,0,4.8163,4.818,4.8227,4.8248,4.8278,4.8286,4.8298,4.8325,4.8334,4.839,4.838,4.8416,4.848,4.8504,4.8524,4.8607,4.8598,4.8619,4.8661,4.8701,4.8711,4.872,4.8752,4.8763,4.8626,4.8626,4.8626,0,4.8193,4.825,4.8251,4.8295,4.8318,4.8306,4.8355,4.8375,4.8416,4.8432,4.8414,4.8498,4.8517,4.8588,4.8609,4.8624,4.864,4.8615,4.8709,4.8718,4.8726,4.8757,4.8769,4.8628,4.8628,4.8628,4.8627,0,4.8287,4.8327,4.8361,4.8402,4.8428,4.8474,4.8484,4.8511,4.851,4.8521,4.858,4.8604,4.8646,4.8662,4.8661,4.8735,4.8725,4.8708,4.8676,4.874,4.877,4.8781,4.8632,4.8631,4.863,4.863,0,0,4.8372,4.8415,4.8428,4.8448,4.8482,4.8514,4.8562,4.8603,4.8627,4.8657,4.8698,4.8755,4.8741,4.8764,4.8766,4.8801,4.8869,4.878,4.8781,4.8798,4.8956,4.897,4.8983,4.8863,4.8866,4.8867,4.8955,0,4.8445,4.8527,4.8532,4.8607,4.8646,4.8638,4.8679,4.8707,4.8719,4.8756,4.877,4.8811,4.8788,4.8803,4.8837,4.8854,4.8901,4.8847,4.8904,4.8906,4.8898,4.8998,4.9012,4.9093,4.8966,4.8968,4.8969,0,4.8541,4.8575,4.8655,4.8687,4.8704,4.8741,4.8782,4.8816,4.8848,4.8855,4.8883,4.8881,4.8933,4.8899,4.8971,4.8935,4.8959,4.8971,4.8974,4.8981,4.8942,4.9009,4.9118,4.9131,4.8987,4.8985,4.8984,0,4.8599,4.8664,4.8721,4.8738,4.8777,4.8804,4.8822,4.8852,4.8878,4.8914,4.8931,4.8973,4.8996,4.9029,4.904,4.9013,4.9113,4.9079,4.9123,4.9123,4.9144,4.9143,4.9261,4.9157,4.9157,4.9157,4.9156,0,4.8682,4.8731,4.8748,4.8783,4.884,4.8846,4.8902,4.8918,4.8946,4.8986,4.8981,4.9019,4.903,4.907,4.9079,4.914,4.915,4.9159,4.9161,4.916,4.916,4.9177,4.9172,4.916,4.9159,4.9159,4.9158,0,4.8755,4.8768,4.883,4.8863,4.8872,4.8913,4.8942,4.8977,4.899,4.9041,4.9054,4.9075,4.9123,4.9137,4.9194,4.92,4.9273,4.9268,4.9262,4.9262,4.9306,4.9303,4.944,4.946,4.9342,4.9343,4.9344,0,4.8808,4.8846,4.8884,4.891,4.8929,4.8971,4.8999,4.9007,4.9036,4.9078,4.9109,4.9157,4.9196,4.9274,4.9295,4.934,4.9339,4.9384,4.9345,4.9345,4.9343,4.9341,4.9347,4.9391,4.9393,4.9394,4.9394,0,4.89,4.8906,4.8945,4.8987,4.902,4.9054,4.9087,4.9109,4.9123,4.9156,4.9206,4.9236,4.9296,4.9345,4.9392,4.9412,4.9407,4.9407,4.942,4.942,4.9416,4.9422,4.9284,4.9403,4.9402,4.9402,4.9401,4.9401,4.8967,4.9002,4.9035,4.908,4.9106,4.9137,4.9173,4.9192,4.9233,4.9282,4.9286,4.934,4.9376,4.9438,4.9461,4.9506,4.9493,4.951,4.9516,4.952,4.9526,4.9408,4.9514,4.9514,4.9513,4.9513,4.9513,0,4.9062,4.9083,4.9124,4.9171,4.9207,4.9199,4.9236,4.9268,4.9316,4.9349,4.9388,4.9447,4.9495,4.9522,4.9571,4.9602,4.9601,4.9614,4.9613,4.9619,4.9533,4.9518,4.9614,4.9614,4.9614,4.9614,4.9614,4.9614,4.9115,4.9176,4.9186,4.926,4.9282,4.9335,4.9358,4.9388,4.9415,4.9481,4.9521,4.9538,4.957,4.9622,4.9667,4.9674,4.9693,4.9709,4.9715,4.9634,4.9624,4.9614,4.96,4.9712,4.9713,4.9797,4.9798,4.9798]}]]